Time,TemperatureF,DewpointF,PressureIn,WindDirection,WindDirectionDegrees,WindSpeedMPH,WindSpeedGustMPH,Humidity,HourlyPrecipIn,Conditions,Clouds,dailyrainin,SoftwareType,DateUTC
2013-03-06 00:02:00,23.0,17.0,30.34,North,0,0.0,0.0,77,0.00,,,0.00,,2013-03-06 06:02:00,
2013-03-06 00:11:00,23.0,17.0,30.34,North,0,0.0,0.0,77,0.00,,,0.00,,2013-03-06 06:11:00,
2013-03-06 00:22:00,23.0,17.0,30.35,North,0,0.0,0.0,77,0.00,,,0.00,,2013-03-06 06:22:00,
2013-03-06 00:32:00,23.0,17.0,30.35,North,0,0.0,0.0,77,0.00,,,0.00,,2013-03-06 06:32:00,
2013-03-06 00:42:00,23.0,17.0,30.35,North,0,0.0,0.0,77,0.00,,,0.00,,2013-03-06 06:42:00,
2013-03-06 00:52:00,23.0,17.0,30.35,North,0,0.0,0.0,78,0.00,,,0.00,,2013-03-06 06:52:00,
2013-03-06 01:01:00,23.0,17.0,30.35,North,0,0.0,0.0,78,0.00,,,0.00,,2013-03-06 07:01:00,
2013-03-06 01:11:00,23.0,17.0,30.35,North,0,0.0,0.0,78,0.00,,,0.00,,2013-03-06 07:11:00,
2013-03-06 01:22:00,22.0,16.0,30.36,NNW,338,0.0,3.0,78,0.00,,,0.00,,2013-03-06 07:22:00,
2013-03-06 01:31:00,22.0,16.0,30.36,NNW,338,0.0,3.0,78,0.00,,,0.00,,2013-03-06 07:31:00,
2013-03-06 01:42:00,22.0,16.0,30.36,NNW,338,0.0,3.0,78,0.00,,,0.00,,2013-03-06 07:42:00,
2013-03-06 01:52:00,21.0,15.0,30.38,NW,325,0.0,1.0,77,0.00,,,0.00,,2013-03-06 07:52:00,
2013-03-06 02:01:00,21.0,15.0,30.38,NW,325,0.0,1.0,77,0.00,,,0.00,,2013-03-06 08:01:00,
2013-03-06 02:11:00,21.0,15.0,30.38,NW,325,0.0,1.0,77,0.00,,,0.00,,2013-03-06 08:11:00,
2013-03-06 02:21:00,21.0,15.0,30.39,NW,323,0.0,2.0,76,0.00,,,0.00,,2013-03-06 08:21:00,
2013-03-06 02:32:00,21.0,15.0,30.39,NW,323,0.0,2.0,76,0.00,,,0.00,,2013-03-06 08:32:00,
2013-03-06 02:42:00,21.0,15.0,30.39,NW,323,0.0,2.0,76,0.00,,,0.00,,2013-03-06 08:42:00,
2013-03-06 02:52:00,21.0,15.0,30.39,WNW,297,2.0,10.0,77,0.00,,,0.00,,2013-03-06 08:52:00,
2013-03-06 03:01:00,21.0,15.0,30.39,WNW,297,2.0,10.0,77,0.00,,,0.00,,2013-03-06 09:01:00,
2013-03-06 03:12:00,21.0,15.0,30.39,WNW,297,2.0,10.0,77,0.00,,,0.00,,2013-03-06 09:12:00,
2013-03-06 03:21:00,21.0,15.0,30.39,NW,316,2.0,9.0,76,0.00,,,0.00,,2013-03-06 09:21:00,
2013-03-06 03:31:00,21.0,15.0,30.39,NW,316,2.0,9.0,76,0.00,,,0.00,,2013-03-06 09:31:00,
2013-03-06 03:42:00,21.0,15.0,30.39,NW,316,2.0,9.0,76,0.00,,,0.00,,2013-03-06 09:42:00,
2013-03-06 03:52:00,20.0,14.0,30.39,NW,322,0.0,1.0,76,0.00,,,0.00,,2013-03-06 09:52:00,
2013-03-06 04:01:00,20.0,14.0,30.39,NW,322,0.0,1.0,76,0.00,,,0.00,,2013-03-06 10:01:00,
2013-03-06 04:11:00,20.0,14.0,30.39,NW,322,0.0,1.0,76,0.00,,,0.00,,2013-03-06 10:11:00,
2013-03-06 04:21:00,20.0,14.0,30.40,NW,323,0.0,1.0,76,0.00,,,0.00,,2013-03-06 10:21:00,
2013-03-06 04:31:00,20.0,14.0,30.40,NW,323,0.0,1.0,76,0.00,,,0.00,,2013-03-06 10:31:00,
2013-03-06 04:42:00,20.0,14.0,30.40,NW,323,0.0,1.0,76,0.00,,,0.00,,2013-03-06 10:42:00,
2013-03-06 04:52:00,19.0,13.0,30.40,NW,323,0.0,0.0,76,0.00,,,0.00,,2013-03-06 10:52:00,
2013-03-06 05:02:00,19.0,13.0,30.40,NW,323,0.0,0.0,76,0.00,,,0.00,,2013-03-06 11:02:00,
2013-03-06 05:11:00,19.0,13.0,30.40,NW,323,0.0,0.0,76,0.00,,,0.00,,2013-03-06 11:11:00,
2013-03-06 05:22:00,19.0,13.0,30.41,NW,323,0.0,0.0,77,0.00,,,0.00,,2013-03-06 11:22:00,
2013-03-06 05:32:00,19.0,13.0,30.41,NW,323,0.0,0.0,77,0.00,,,0.00,,2013-03-06 11:32:00,
2013-03-06 05:42:00,19.0,13.0,30.41,NW,323,0.0,0.0,77,0.00,,,0.00,,2013-03-06 11:42:00,
2013-03-06 05:52:00,18.0,12.0,30.42,NW,323,0.0,1.0,77,0.00,,,0.00,,2013-03-06 11:52:00,
2013-03-06 06:02:00,18.0,12.0,30.42,NW,323,0.0,1.0,77,0.00,,,0.00,,2013-03-06 12:02:00,
2013-03-06 06:11:00,18.0,12.0,30.42,NW,323,0.0,1.0,77,0.00,,,0.00,,2013-03-06 12:11:00,
2013-03-06 06:21:00,18.0,12.0,30.43,NW,323,0.0,0.0,76,0.00,,,0.00,,2013-03-06 12:21:00,
2013-03-06 06:32:00,18.0,12.0,30.43,NW,323,0.0,0.0,76,0.00,,,0.00,,2013-03-06 12:32:00,
2013-03-06 06:43:00,18.0,12.0,30.43,NW,323,0.0,0.0,76,0.00,,,0.00,,2013-03-06 12:43:00,
2013-03-06 06:52:00,18.0,12.0,30.44,NW,323,0.0,0.0,77,0.00,,,0.00,,2013-03-06 12:52:00,
2013-03-06 07:02:00,18.0,12.0,30.44,NW,323,0.0,0.0,77,0.00,,,0.00,,2013-03-06 13:02:00,
2013-03-06 07:12:00,18.0,12.0,30.44,NW,323,0.0,0.0,77,0.00,,,0.00,,2013-03-06 13:12:00,
2013-03-06 07:22:00,19.0,12.0,30.44,NW,325,0.0,0.0,75,0.00,,,0.00,,2013-03-06 13:22:00,
2013-03-06 07:32:00,19.0,12.0,30.44,NW,325,0.0,0.0,75,0.00,,,0.00,,2013-03-06 13:32:00,
2013-03-06 07:42:00,19.0,12.0,30.44,NW,325,0.0,0.0,75,0.00,,,0.00,,2013-03-06 13:42:00,
2013-03-06 07:52:00,19.0,12.0,30.45,NW,325,0.0,0.0,74,0.00,,,0.00,,2013-03-06 13:52:00,
2013-03-06 08:01:00,19.0,12.0,30.45,NW,325,0.0,0.0,74,0.00,,,0.00,,2013-03-06 14:01:00,
2013-03-06 08:11:00,19.0,12.0,30.45,NW,325,0.0,0.0,74,0.00,,,0.00,,2013-03-06 14:11:00,
2013-03-06 08:22:00,20.0,13.0,30.46,NW,324,0.0,1.0,73,0.00,,,0.00,,2013-03-06 14:22:00,
2013-03-06 08:32:00,20.0,13.0,30.46,NW,324,0.0,1.0,73,0.00,,,0.00,,2013-03-06 14:32:00,
2013-03-06 08:42:00,20.0,13.0,30.46,NW,324,0.0,1.0,73,0.00,,,0.00,,2013-03-06 14:42:00,
2013-03-06 08:52:00,20.0,12.0,30.45,NNW,336,1.0,5.0,70,0.00,,,0.00,,2013-03-06 14:52:00,
2013-03-06 09:02:00,20.0,12.0,30.45,NNW,336,1.0,5.0,70,0.00,,,0.00,,2013-03-06 15:02:00,
2013-03-06 09:11:00,20.0,12.0,30.45,NNW,336,1.0,5.0,70,0.00,,,0.00,,2013-03-06 15:11:00,
2013-03-06 09:21:00,21.0,12.0,30.45,North,0,0.0,5.0,69,0.00,,,0.00,,2013-03-06 15:21:00,
2013-03-06 09:32:00,21.0,12.0,30.45,North,0,0.0,5.0,69,0.00,,,0.00,,2013-03-06 15:32:00,
2013-03-06 09:42:00,21.0,12.0,30.45,North,0,0.0,5.0,69,0.00,,,0.00,,2013-03-06 15:42:00,
2013-03-06 09:52:00,22.0,13.0,30.46,North,358,0.0,6.0,68,0.00,,,0.00,,2013-03-06 15:52:00,
2013-03-06 10:01:00,22.0,13.0,30.46,North,358,0.0,6.0,68,0.00,,,0.00,,2013-03-06 16:01:00,
2013-03-06 10:11:00,22.0,13.0,30.46,North,358,0.0,6.0,68,0.00,,,0.00,,2013-03-06 16:11:00,
2013-03-06 10:21:00,22.0,13.0,30.46,NW,315,0.0,4.0,67,0.00,,,0.00,,2013-03-06 16:21:00,
2013-03-06 10:32:00,22.0,13.0,30.46,NW,315,0.0,4.0,67,0.00,,,0.00,,2013-03-06 16:32:00,
2013-03-06 10:42:00,22.0,13.0,30.46,NW,315,0.0,4.0,67,0.00,,,0.00,,2013-03-06 16:42:00,
2013-03-06 10:52:00,22.0,12.0,30.45,NNW,344,0.0,3.0,66,0.00,,,0.00,,2013-03-06 16:52:00,
2013-03-06 11:01:00,22.0,12.0,30.45,NNW,344,0.0,3.0,66,0.00,,,0.00,,2013-03-06 17:01:00,
2013-03-06 11:11:00,22.0,12.0,30.45,NNW,344,0.0,3.0,66,0.00,,,0.00,,2013-03-06 17:11:00,
2013-03-06 11:21:00,22.0,12.0,30.45,WNW,299,1.0,6.0,66,0.00,,,0.00,,2013-03-06 17:21:00,
2013-03-06 11:32:00,22.0,12.0,30.45,WNW,299,1.0,6.0,66,0.00,,,0.00,,2013-03-06 17:32:00,
2013-03-06 11:42:00,22.0,12.0,30.45,WNW,299,1.0,6.0,66,0.00,,,0.00,,2013-03-06 17:42:00,
2013-03-06 11:52:00,23.0,13.0,30.45,NW,320,0.0,4.0,65,0.00,,,0.00,,2013-03-06 17:52:00,
2013-03-06 12:02:00,23.0,13.0,30.45,NW,320,0.0,4.0,65,0.00,,,0.00,,2013-03-06 18:02:00,
2013-03-06 12:28:00,23.0,13.0,30.43,NW,309,1.0,5.0,64,0.00,,,0.00,,2013-03-06 18:28:00,
2013-03-06 12:42:00,23.0,13.0,30.43,NW,309,1.0,5.0,64,0.00,,,0.00,,2013-03-06 18:42:00,
2013-03-06 12:52:00,23.0,13.0,30.43,North,0,0.0,3.0,64,0.00,,,0.00,,2013-03-06 18:52:00,
2013-03-06 13:02:00,23.0,13.0,30.43,North,0,0.0,3.0,64,0.00,,,0.00,,2013-03-06 19:02:00,
2013-03-06 13:11:00,23.0,13.0,30.43,North,0,0.0,3.0,64,0.00,,,0.00,,2013-03-06 19:11:00,
2013-03-06 13:21:00,23.0,12.0,30.43,North,357,0.0,7.0,63,0.00,,,0.00,,2013-03-06 19:21:00,
2013-03-06 13:32:00,23.0,12.0,30.43,North,357,0.0,7.0,63,0.00,,,0.00,,2013-03-06 19:32:00,
2013-03-06 13:43:00,23.0,12.0,30.43,North,357,0.0,7.0,63,0.00,,,0.00,,2013-03-06 19:43:00,
2013-03-06 13:53:00,24.0,13.0,30.42,NW,313,0.0,2.0,62,0.00,,,0.00,,2013-03-06 19:53:00,
2013-03-06 14:01:00,24.0,13.0,30.42,NW,313,0.0,2.0,62,0.00,,,0.00,,2013-03-06 20:01:00,
2013-03-06 14:12:00,24.0,13.0,30.42,NW,313,0.0,2.0,62,0.00,,,0.00,,2013-03-06 20:12:00,
2013-03-06 14:22:00,25.0,14.0,30.40,WNW,303,0.0,1.0,62,0.00,,,0.00,,2013-03-06 20:22:00,
2013-03-06 14:32:00,25.0,14.0,30.40,WNW,303,0.0,1.0,62,0.00,,,0.00,,2013-03-06 20:32:00,
2013-03-06 14:43:00,25.0,14.0,30.40,WNW,303,0.0,1.0,62,0.00,,,0.00,,2013-03-06 20:43:00,
2013-03-06 14:53:00,25.0,13.0,30.40,North,1,1.0,4.0,61,0.00,,,0.00,,2013-03-06 20:53:00,
2013-03-06 15:02:00,25.0,13.0,30.40,North,1,1.0,4.0,61,0.00,,,0.00,,2013-03-06 21:02:00,
2013-03-06 15:12:00,25.0,13.0,30.40,North,1,1.0,4.0,61,0.00,,,0.00,,2013-03-06 21:12:00,
2013-03-06 15:22:00,25.0,13.0,30.40,North,0,0.0,1.0,61,0.00,,,0.00,,2013-03-06 21:22:00,
2013-03-06 15:32:00,25.0,13.0,30.40,North,0,0.0,1.0,61,0.00,,,0.00,,2013-03-06 21:32:00,
2013-03-06 15:42:00,25.0,13.0,30.40,North,0,0.0,1.0,61,0.00,,,0.00,,2013-03-06 21:42:00,
2013-03-06 15:52:00,26.0,14.0,30.39,NW,317,0.0,1.0,60,0.00,,,0.00,,2013-03-06 21:52:00,
2013-03-06 16:01:00,26.0,14.0,30.39,NW,317,0.0,1.0,60,0.00,,,0.00,,2013-03-06 22:01:00,
2013-03-06 16:11:00,26.0,14.0,30.39,NW,317,0.0,1.0,60,0.00,,,0.00,,2013-03-06 22:11:00,
2013-03-06 16:21:00,25.0,12.0,30.39,NW,317,0.0,1.0,58,0.00,,,0.00,,2013-03-06 22:21:00,
2013-03-06 16:32:00,25.0,12.0,30.39,NW,317,0.0,1.0,58,0.00,,,0.00,,2013-03-06 22:32:00,
2013-03-06 16:42:00,25.0,12.0,30.39,NW,317,0.0,1.0,58,0.00,,,0.00,,2013-03-06 22:42:00,
2013-03-06 16:52:00,26.0,13.0,30.39,NW,311,0.0,1.0,58,0.00,,,0.00,,2013-03-06 22:52:00,
2013-03-06 17:01:00,26.0,13.0,30.39,NW,311,0.0,1.0,58,0.00,,,0.00,,2013-03-06 23:01:00,
2013-03-06 17:11:00,26.0,13.0,30.39,NW,311,0.0,1.0,58,0.00,,,0.00,,2013-03-06 23:11:00,
2013-03-06 17:21:00,25.0,13.0,30.39,WNW,297,0.0,2.0,60,0.00,,,0.00,,2013-03-06 23:21:00,
2013-03-06 17:32:00,25.0,13.0,30.39,WNW,297,0.0,2.0,60,0.00,,,0.00,,2013-03-06 23:32:00,
2013-03-06 17:42:00,25.0,13.0,30.39,WNW,297,0.0,2.0,60,0.00,,,0.00,,2013-03-06 23:42:00,
2013-03-06 17:52:00,25.0,13.0,30.39,WNW,291,0.0,1.0,61,0.00,,,0.00,,2013-03-06 23:52:00,
2013-03-06 18:01:00,25.0,13.0,30.39,WNW,291,0.0,1.0,61,0.00,,,0.00,,2013-03-07 00:01:00,
2013-03-06 18:11:00,25.0,13.0,30.39,WNW,291,0.0,1.0,61,0.00,,,0.00,,2013-03-07 00:11:00,
2013-03-06 18:21:00,24.0,13.0,30.39,WNW,291,0.0,1.0,62,0.00,,,0.00,,2013-03-07 00:21:00,
2013-03-06 18:32:00,24.0,13.0,30.39,WNW,291,0.0,1.0,62,0.00,,,0.00,,2013-03-07 00:32:00,
2013-03-06 18:42:00,24.0,13.0,30.39,WNW,291,0.0,1.0,62,0.00,,,0.00,,2013-03-07 00:42:00,
2013-03-06 18:52:00,22.0,12.0,30.39,WNW,291,0.0,0.0,65,0.00,,,0.00,,2013-03-07 00:52:00,
2013-03-06 19:01:00,22.0,12.0,30.39,WNW,291,0.0,0.0,65,0.00,,,0.00,,2013-03-07 01:01:00,
2013-03-06 19:11:00,22.0,12.0,30.39,WNW,291,0.0,0.0,65,0.00,,,0.00,,2013-03-07 01:11:00,
2013-03-06 19:21:00,21.0,12.0,30.39,WNW,291,0.0,1.0,67,0.00,,,0.00,,2013-03-07 01:21:00,
2013-03-06 19:31:00,21.0,12.0,30.39,WNW,291,0.0,1.0,67,0.00,,,0.00,,2013-03-07 01:31:00,
2013-03-06 19:42:00,21.0,12.0,30.39,WNW,291,0.0,1.0,67,0.00,,,0.00,,2013-03-07 01:42:00,
2013-03-06 19:52:00,20.0,11.0,30.39,WNW,291,0.0,0.0,68,0.00,,,0.00,,2013-03-07 01:52:00,
2013-03-06 20:01:00,20.0,11.0,30.39,WNW,291,0.0,0.0,68,0.00,,,0.00,,2013-03-07 02:01:00,
2013-03-06 20:11:00,20.0,11.0,30.39,WNW,291,0.0,0.0,68,0.00,,,0.00,,2013-03-07 02:11:00,
2013-03-06 20:21:00,19.0,11.0,30.39,WNW,291,0.0,0.0,70,0.00,,,0.00,,2013-03-07 02:21:00,
2013-03-06 20:32:00,19.0,11.0,30.39,WNW,291,0.0,0.0,70,0.00,,,0.00,,2013-03-07 02:32:00,
2013-03-06 20:42:00,19.0,11.0,30.39,WNW,291,0.0,0.0,70,0.00,,,0.00,,2013-03-07 02:42:00,
2013-03-06 20:52:00,19.0,11.0,30.39,WNW,291,0.0,0.0,70,0.00,,,0.00,,2013-03-07 02:52:00,
2013-03-06 21:02:00,17.0,10.0,30.39,WNW,291,0.0,0.0,72,0.00,,,0.00,,2013-03-07 03:02:00,
2013-03-06 21:11:00,16.0,9.0,30.39,WNW,291,0.0,0.0,74,0.00,,,0.00,,2013-03-07 03:11:00,
2013-03-06 21:21:00,16.0,9.0,30.39,WNW,291,0.0,0.0,74,0.00,,,0.00,,2013-03-07 03:21:00,
2013-03-06 21:32:00,16.0,9.0,30.39,WNW,291,0.0,0.0,74,0.00,,,0.00,,2013-03-07 03:32:00,
2013-03-06 21:42:00,16.0,9.0,30.39,WNW,291,0.0,0.0,74,0.00,,,0.00,,2013-03-07 03:42:00,
2013-03-06 21:52:00,15.0,9.0,30.39,WNW,291,0.0,0.0,75,0.00,,,0.00,,2013-03-07 03:52:00,
2013-03-06 22:01:00,15.0,9.0,30.39,WNW,291,0.0,0.0,75,0.00,,,0.00,,2013-03-07 04:01:00,
2013-03-06 22:11:00,15.0,9.0,30.39,WNW,291,0.0,0.0,75,0.00,,,0.00,,2013-03-07 04:11:00,
2013-03-06 22:21:00,14.0,8.0,30.40,WNW,291,0.0,0.0,76,0.00,,,0.00,,2013-03-07 04:21:00,
2013-03-06 22:31:00,14.0,8.0,30.40,WNW,291,0.0,0.0,76,0.00,,,0.00,,2013-03-07 04:31:00,
2013-03-06 22:42:00,14.0,8.0,30.40,WNW,291,0.0,0.0,76,0.00,,,0.00,,2013-03-07 04:42:00,
2013-03-06 22:52:00,11.0,5.0,30.40,WNW,291,0.0,0.0,76,0.00,,,0.00,,2013-03-07 04:52:00,
2013-03-06 23:01:00,11.0,5.0,30.40,WNW,291,0.0,0.0,76,0.00,,,0.00,,2013-03-07 05:01:00,
2013-03-06 23:12:00,11.0,5.0,30.40,WNW,291,0.0,0.0,76,0.00,,,0.00,,2013-03-07 05:12:00,
2013-03-06 23:22:00,11.0,5.0,30.40,WNW,291,0.0,0.0,77,0.00,,,0.00,,2013-03-07 05:22:00,
2013-03-06 23:32:00,11.0,5.0,30.40,WNW,291,0.0,0.0,77,0.00,,,0.00,,2013-03-07 05:32:00,
2013-03-06 23:42:00,11.0,5.0,30.40,WNW,291,0.0,0.0,77,0.00,,,0.00,,2013-03-07 05:42:00,
2013-03-06 23:52:00,9.0,3.0,30.40,WNW,291,0.0,0.0,77,0.00,,,0.00,,2013-03-07 05:52:00,